FW0788 Weather Reports


Display with metric or nautical units.
time (UTC)temp
F
wind
direction
speed
MPH
gust
MPH
rain 1hr
in
rain 24hr
in
rain mn
in
humidity
%
barometer
mb
20260508061543 61 67 0.0 6.0 0.00 0.00 0.00 56 1015.2
20260508060043 62 143 0.0 3.0 0.00 0.00 0.00 56 1015.0
20260508054543 63 65 0.0 4.0 0.00 0.00 0.00 54 1014.8
20260508053051 63 119 0.0 6.0 0.00 0.00 0.00 54 1014.7
20260508051603 63 200 0.0 6.0 0.00 0.00 0.00 54 1014.7
20260508050040 62 101 1.0 8.0 0.00 0.00 0.00 55 1014.5
20260508044535 64 164 1.0 7.0 0.00 0.00 0.00 53 1014.2
20260508043035 64 103 0.0 3.0 0.00 0.00 0.00 53 1014.1
20260508041533 63 167 0.0 8.0 0.00 0.00 0.00 56 1014.3
20260508040033 64 323 0.0 3.0 0.00 0.00 0.00 51 1014.1
20260508034532 64 76 0.0 8.0 0.00 0.00 0.00 51 1013.9
20260508033034 64 62 0.0 3.0 0.00 0.00 0.00 50 1013.8
20260508031530 63 105 0.0 2.0 0.00 0.00 0.00 54 1013.9
20260508030029 62 154 0.0 1.0 0.00 0.00 0.00 54 1013.7
20260508024531 63 155 0.0 2.0 0.00 0.00 0.00 51 1013.9
20260508023032 64 136 0.0 4.0 0.00 0.00 0.00 53 1013.9
20260508021533 63 159 0.0 4.0 0.00 0.00 0.00 50 1013.8
20260508020026 64 127 0.0 7.0 0.00 0.00 0.00 49 1013.9
20260508014523 64 96 0.0 3.0 0.00 0.00 0.00 54 1013.7
20260508013020 63 105 0.0 5.0 0.00 0.00 0.00 52 1013.8
20260508011522 62 122 0.0 4.0 0.00 0.00 0.00 53 1013.6
20260508010031 63 89 0.0 6.0 0.00 0.00 0.00 53 1013.6
20260508004513 62 94 0.0 4.0 0.00 0.00 0.00 56 1013.2
20260508003009 61 36 0.0 4.0 0.00 0.00 0.00 56 1013.1
20260508001504 60 114 0.0 4.0 0.00 0.00 0.00 56 1012.7
20260508000002 60 149 0.0 2.0 0.00 0.00 0.00 56 1012.4
20260507234558 60 115 0.0 3.0 0.00 0.00 0.00 55 1012.4
20260507233053 59 99 0.0 2.0 0.00 0.00 0.00 59 1012.2
20260507231550 58 151 0.0 4.0 0.00 0.00 0.00 58 1011.8
20260507230105 58 103 0.0 3.0 0.00 0.00 0.00 58 1011.5
20260507224542 57 97 0.0 2.0 0.00 0.00 0.00 60 1011.2
20260507223106 55 109 0.0 2.0 0.00 0.00 0.00 61 1011.0
20260507221532 54 94 0.0 2.0 0.00 0.00 0.00 62 1010.8
20260507220029 54 149 0.0 6.0 0.00 0.00 0.00 63 1010.4
20260507214525 54 234 0.0 1.0 0.00 0.00 0.00 61 1010.1
20260507213022 54 117 0.0 2.0 0.00 0.00 0.00 62 1009.7
20260507211520 54 195 0.0 2.0 0.00 0.00 0.00 61 1009.3
20260507210019 54 59 1.0 9.0 0.00 0.00 0.00 62 1008.8
20260507204515 54 89 0.0 8.0 0.00 0.00 0.00 62 1008.4
20260507203029 54 132 0.0 6.0 0.00 0.00 0.00 65 1008.4
20260507201513 54 102 0.0 8.0 0.00 0.00 0.00 64 1008.5
20260507200022 54 115 0.0 6.0 0.00 0.00 0.00 64 1008.3
20260507194510 55 171 0.0 4.0 0.00 0.00 0.00 62 1008.1
20260507193024 55 172 0.0 5.0 0.00 0.00 0.00 64 1007.9
20260507191507 55 109 0.0 4.0 0.00 0.00 0.00 65 1007.7
20260507190006 54 146 1.0 12.0 0.00 0.00 0.00 66 1007.6
20260507184509 49 250 0.0 3.0 0.00 0.00 0.00 78 1007.6
20260507183100 49 245 0.0 0.0 0.00 0.00 0.00 82 1007.6
20260507181605 49 242 0.0 0.0 0.00 0.00 0.00 80 1007.5
20260507180056 50 248 0.0 1.0 0.00 0.00 0.00 78 1007.5
20260507174557 52 248 0.0 1.0 0.00 0.00 0.00 75 1007.2
20260507173054 52 218 0.0 1.0 0.00 0.00 0.00 74 1007.0
20260507171559 54 217 0.0 3.0 0.00 0.00 0.00 71 1006.7
20260507170050 54 194 0.0 8.0 0.00 0.00 0.00 71 1006.5
20260507164547 53 93 1.0 7.0 0.00 0.00 0.00 73 1006.4
20260507163045 54 180 0.0 5.0 0.00 0.00 0.00 73 1006.8
20260507161552 54 134 0.0 2.0 0.00 0.00 0.00 73 1006.5
20260507160044 55 138 0.0 2.0 0.00 0.00 0.00 71 1006.5
20260507154545 55 161 0.0 7.0 0.00 0.00 0.00 72 1006.4
20260507153048 56 94 1.0 14.0 0.00 0.00 0.00 71 1006.1
20260507151639 55 161 2.0 12.0 0.00 0.00 0.00 74 1006.0
20260507150043 54 142 1.0 8.0 0.00 0.00 0.00 77 1006.0
20260507144539 54 109 0.0 2.0 0.00 0.00 0.00 79 1005.9
20260507143036 55 102 0.0 13.0 0.00 0.00 0.00 78 1005.8
20260507141535 55 96 0.0 12.0 0.00 0.00 0.00 78 1006.0
20260507140034 55 136 0.0 11.0 0.00 0.00 0.00 78 1006.0
20260507134531 54 74 0.0 3.0 0.00 0.00 0.00 79 1006.2
20260507133028 54 117 1.0 11.0 0.00 0.00 0.00 78 1006.4
20260507131527 54 123 1.0 17.0 0.00 0.00 0.00 79 1006.4
20260507130024 53 163 0.0 9.0 0.00 0.00 0.00 80 1006.4
20260507124518 52 155 0.0 11.0 0.00 0.00 0.00 82 1006.7
20260507123018 52 67 0.0 14.0 0.00 0.00 0.00 82 1006.7
20260507121516 52 72 1.0 15.0 0.00 0.00 0.00 82 1007.1
20260507120016 52 134 1.0 15.0 0.00 0.00 0.00 82 1007.5
20260507114516 51 148 2.0 13.0 0.00 0.00 0.00 83 1007.6
20260507113014 52 112 0.0 9.0 0.00 0.00 0.00 82 1007.9
20260507111513 52 111 0.0 12.0 0.00 0.00 0.00 81 1008.3
20260507110012 52 104 1.0 4.0 0.00 0.00 0.00 81 1008.4
20260507104512 52 68 0.0 10.0 0.00 0.01 0.00 80 1008.8
20260507103012 52 178 0.0 9.0 0.00 0.01 0.00 79 1009.1
20260507101511 52 127 0.0 10.0 0.00 0.01 0.00 78 1009.3
20260507100009 51 162 0.0 11.0 0.00 0.01 0.00 77 1009.9
20260507094508 50 116 1.0 4.0 0.00 0.02 0.00 78 1009.9
20260507093008 50 136 0.0 10.0 0.00 0.02 0.00 77 1010.5
20260507091508 50 157 0.0 11.0 0.00 0.02 0.00 75 1010.7
20260507090006 50 217 1.0 15.0 0.00 0.02 0.00 74 1011.0
20260507084505 50 78 0.0 7.0 0.00 0.02 0.00 73 1010.8
20260507083005 50 115 0.0 3.0 0.00 0.02 0.00 72 1011.5
20260507081503 50 132 0.0 6.0 0.00 0.02 0.00 71 1011.5
20260507074625 50 128 0.0 14.0 0.00 0.02 0.00 71 1011.6
20260507073103 49 189 0.0 6.0 0.00 0.02 0.00 72 1011.9
20260507071558 49 89 0.0 0.0 0.00 0.02 0.00 69 1012.1
20260507070104 48 190 0.0 4.0 0.00 0.02 0.00 67 1012.2
20260507064558 48 178 0.0 2.0 0.00 0.02 0.00 66 1012.3
20260507063058 48 138 0.0 1.0 0.00 0.02 0.00 65 1012.6